Regional Weather Roundup
Issued by NWS Binghamton, NY

Current Version | Previous Version | Text Only | Print | Product List | Glossary On
Versions: 1 2 3 4 5 6 7 8 9 10 11 12 13 14 15 16 17 18 19 20 21 22 23 24 25 26 27 28 29 30 31 32 33 34 35 36 37 38 39 40 41 42 43 44 45 46 47 48 49 50
000 ASUS41 KBGM 190110 RWRBGM REGIONAL WEATHER ROUNDUP NATIONAL WEATHER SERVICE BINGHAMTON NY 900 PM EDT SUN APR 18 2021 Note: "fair" indicates few or no clouds below 12,000 feet with no significant weather and/or obstructions to visibility. * = Station(s) that does not report precipitation, such as rain, snow, etc, also no thunder or fog. NYZ009-015>018-022>025-036-037-044>046-055>057-062-190200 ...Central New York... CITY SKY/WX TMP DP RH WIND PRES REMARKS Binghamton CLOUDY 48 33 56 W6 29.84R Cortland FAIR 45 37 76 SW3 29.85R Dansville MOCLDY 50 38 63 CALM 29.86R Elmira CLOUDY 46 43 89 CALM 29.86R Endicott CLOUDY 48 39 71 CALM 29.85S Ithaca MOCLDY 47 37 68 S6 29.85S Hamilton CLEAR 41 34 75 CALM 29.85R Monticello MOCLDY 46 37 71 NW5 29.86R Norwich CLOUDY 43 37 81 CALM 29.85R Oneonta CLEAR 45 34 65 W3 29.84R Penn Yan MOCLDY 48 39 71 SW6 29.85R Rome CLEAR 51 33 50 N3 29.85R Seneca Falls MOCLDY 50 37 62 SW8 29.85R Sidney CLOUDY 45 37 76 CALM 29.86R Skaneateles FAIR 48 37 66 SW5 29.84R Syracuse PTCLDY 50 29 44 CALM 29.84R $$ PAZ038>040-043-044-047-048-072-190200 ...Northeast Pennsylvania... CITY SKY/WX TMP DP RH WIND PRES REMARKS Hazleton CLOUDY 50 36 57 CALM 29.90R Scranton MOCLDY 50 38 63 CALM 29.86R Towanda N/A 52 37 58 E3 29.89S $$ && KEY WCI = Wind Chill Index VSB = Visibility HX = Heat Index $$

USA.gov is the U.S. government's official web portal to all federal, state and local government web resources and services.